Location: Düngen
(52.0952°N, 10.0219°E)
Time: 19:31:44
(UTC+00:00)

Cosmos 407 Rocket - Pass Details

Date: 11 March 2026
Orbit: 739 x 781 km, 74.1° (Epoch: 20 April)

Event Time Altitude Azimuth Distance (km) Brightness Sun altitude
Rises 19:54:15 0° 208° (SSW) 3,251 6.8 -24.1°
Reaches altitude 10° 19:56:37 10° 209° (SSW) 2,330 6.0 -24.5°
Maximum altitude 20:01:56 78° 297° (WNW) 806 3.6 -25.2°
Drops below altitude 10° 20:07:17 10° 23° (NNE) 2,346 6.1 -25.9°
Sets 20:09:41 0° 25° (NNE) 3,275 6.8 -26.2°
